Regional Weather Roundup
Issued by NWS

Home | Current Version | Previous Version | Graphics & Text | Print | Product List | Glossary On
Versions: 1 2 3 4 5 6 7 8 9 10 11 12 13 14 15 16 17 18 19 20 21 22 23 24 25 26 27 28 29 30 31 32 33 34 35 36 37 38 39 40 41 42 43 44 45 46 47 48 49 50
000
ASUS43 KLMK 160902
RWRKY
KENTUCKY REGIONAL WEATHER ROUNDUP
NATIONAL WEATHER SERVICE LOUISVILLE KY
500 AM EDT MON OCT 16 2017

NOTE "FAIR" INDICATES FEW OR NO CLOUDS BELOW 12,000 FEET
WITH NO SIGNIFICANT WEATHER AND/OR OBSTRUCTIONS TO VISIBILITY.

KYZ001>023-026-027-061>063-070>075-161000-
WESTERN AND SOUTH CENTRAL KENTUCKY

CITY           SKY/WX    TMP DP  RH WIND       PRES   REMARKS
PADUCAH        CLEAR     47  40  76 N6        30.31S
HENDERSON      CLEAR     47  42  83 NW7       30.31R
OWENSBORO      CLEAR     47  42  83 CALM      30.29
HOPKINSVILLE   CLEAR     46  43  87 N3        30.27S
BOWLING GREEN  CLOUDY    53  43  68 CALM      30.26S
GLASGOW        NOT AVBL
$$

KYZ024-025-028>034-038-045-046-053-161000-
NORTH CENTRAL KENTUCKY

CITY           SKY/WX    TMP DP  RH WIND       PRES   REMARKS
LOUISVILLE/SDF PTCLDY    51  43  74 NW10      30.25S
LOUISVILLE/LOU MOCLDY    50  45  83 N6        30.26S
FORT KNOX      PTCLDY    48  43  81 NW6       30.24S HAZE
$$

KYZ035>037-039>044-047>052-055>060-089>105-161000-
NORTHEAST KENTUCKY

CITY           SKY/WX    TMP DP  RH WIND       PRES   REMARKS
LEXINGTON      MOCLDY    50  43  77 NW6       30.23S
COVINGTON      PTCLDY    48  46  93 N6        30.23S
FRANKFORT      CLOUDY    50  43  77 NW5       30.23S
$$

KYZ054-064>069-076>088-106>120-161000-
SOUTHEAST KENTUCKY

CITY           SKY/WX    TMP DP  RH WIND       PRES   REMARKS
JACKSON        CLOUDY    50  45  83 NW3       30.19F
LONDON         CLOUDY    51  45  79 CALM      30.21S
SOMERSET       NOT AVBL
MIDDLESBORO    CLOUDY    51  44  76 N6        30.20S
MONTICELLO     CLOUDY    51  44  77 N12       30.25S
$$





USA.gov is the U.S. government's official web portal to all federal, state and local government web resources and services.